Year,Month,Day,Hour,Minute,Value (Times are PST for insolation in W/m^2)
2010,05,20,00,00,0.00
2010,05,20,00,01,0.00
2010,05,20,00,02,0.00
2010,05,20,00,03,0.00
2010,05,20,00,04,0.00
2010,05,20,00,05,0.00
2010,05,20,00,06,0.00
2010,05,20,00,07,0.00
2010,05,20,00,08,0.00
2010,05,20,00,09,0.00
2010,05,20,00,10,0.00
2010,05,20,00,11,0.00
2010,05,20,00,12,0.00
2010,05,20,00,13,0.00
2010,05,20,00,14,0.00
2010,05,20,00,15,0.00
2010,05,20,00,16,0.00
2010,05,20,00,17,0.00
2010,05,20,00,18,0.00
2010,05,20,00,19,0.00
2010,05,20,00,20,0.00
2010,05,20,00,21,0.00
2010,05,20,00,22,0.00
2010,05,20,00,23,0.00
2010,05,20,00,24,0.00
2010,05,20,00,25,0.00
2010,05,20,00,26,0.00
2010,05,20,00,27,0.00
2010,05,20,00,28,0.00
2010,05,20,00,29,0.00
2010,05,20,00,30,0.00
2010,05,20,00,31,0.00
2010,05,20,00,32,0.00
2010,05,20,00,33,0.00
2010,05,20,00,34,0.00
2010,05,20,00,35,0.00
2010,05,20,00,36,0.00
2010,05,20,00,37,0.00
2010,05,20,00,38,0.00
2010,05,20,00,39,0.00
2010,05,20,00,40,0.00
2010,05,20,00,41,0.00
2010,05,20,00,42,0.00
2010,05,20,00,43,0.00
2010,05,20,00,44,0.00
2010,05,20,00,45,0.00
2010,05,20,00,46,0.00
2010,05,20,00,47,0.00
2010,05,20,00,48,0.00
2010,05,20,00,49,0.00
2010,05,20,00,50,0.00
2010,05,20,00,51,0.00
2010,05,20,00,52,0.00
2010,05,20,00,53,0.00
2010,05,20,00,54,0.00
2010,05,20,00,55,0.00
2010,05,20,00,56,0.00
2010,05,20,00,57,0.00
2010,05,20,00,58,0.00
2010,05,20,00,59,0.00
2010,05,20,01,00,0.00
2010,05,20,01,01,0.00
2010,05,20,01,02,0.00
2010,05,20,01,03,0.00
2010,05,20,01,04,0.00
2010,05,20,01,05,0.00
2010,05,20,01,06,0.00
2010,05,20,01,07,0.00
2010,05,20,01,08,0.00
2010,05,20,01,09,0.00
2010,05,20,01,10,0.00
2010,05,20,01,11,0.00
2010,05,20,01,12,0.00
2010,05,20,01,13,0.00
2010,05,20,01,14,0.00
2010,05,20,01,15,0.00
2010,05,20,01,16,0.00
2010,05,20,01,17,0.00
2010,05,20,01,18,0.00
2010,05,20,01,19,0.00
2010,05,20,01,20,0.00
2010,05,20,01,21,0.00
2010,05,20,01,22,0.00
2010,05,20,01,23,0.00
2010,05,20,01,24,0.00
2010,05,20,01,25,0.00
2010,05,20,01,26,0.00
2010,05,20,01,27,0.00
2010,05,20,01,28,0.00
2010,05,20,01,29,0.00
2010,05,20,01,30,0.00
2010,05,20,01,31,0.00
2010,05,20,01,32,0.00
2010,05,20,01,33,0.00
2010,05,20,01,34,0.00
2010,05,20,01,35,0.00
2010,05,20,01,36,0.00
2010,05,20,01,37,0.00
2010,05,20,01,38,0.00
2010,05,20,01,39,0.00
2010,05,20,01,40,0.00
2010,05,20,01,41,0.00
2010,05,20,01,42,0.00
2010,05,20,01,43,0.00
2010,05,20,01,44,0.00
2010,05,20,01,45,0.00
2010,05,20,01,46,0.00
2010,05,20,01,47,0.00
2010,05,20,01,48,0.00
2010,05,20,01,49,0.00
2010,05,20,01,50,0.00
2010,05,20,01,51,0.00
2010,05,20,01,52,0.00
2010,05,20,01,53,0.00
2010,05,20,01,54,0.00
2010,05,20,01,55,0.00
2010,05,20,01,56,0.00
2010,05,20,01,57,0.00
2010,05,20,01,58,0.00
2010,05,20,01,59,0.00
2010,05,20,02,00,0.00
2010,05,20,02,01,0.00
2010,05,20,02,02,0.00
2010,05,20,02,03,0.00
2010,05,20,02,04,0.00
2010,05,20,02,05,0.00
2010,05,20,02,06,0.00
2010,05,20,02,07,0.00
2010,05,20,02,08,0.00
2010,05,20,02,09,0.00
2010,05,20,02,10,0.00
2010,05,20,02,11,0.00
2010,05,20,02,12,0.00
2010,05,20,02,13,0.00
2010,05,20,02,14,0.00
2010,05,20,02,15,0.00
2010,05,20,02,16,0.00
2010,05,20,02,17,0.00
2010,05,20,02,18,0.00
2010,05,20,02,19,0.00
2010,05,20,02,20,0.00
2010,05,20,02,21,0.00
2010,05,20,02,22,0.00
2010,05,20,02,23,0.00
2010,05,20,02,24,0.00
2010,05,20,02,25,0.00
2010,05,20,02,26,0.00
2010,05,20,02,27,0.00
2010,05,20,02,28,0.00
2010,05,20,02,29,0.00
2010,05,20,02,30,0.00
2010,05,20,02,31,0.00
2010,05,20,02,32,0.00
2010,05,20,02,33,0.00
2010,05,20,02,34,0.00
2010,05,20,02,35,0.00
2010,05,20,02,36,0.00
2010,05,20,02,37,0.00
2010,05,20,02,38,0.00
2010,05,20,02,39,0.00
2010,05,20,02,40,0.00
2010,05,20,02,41,0.00
2010,05,20,02,42,0.00
2010,05,20,02,43,0.00
2010,05,20,02,44,0.00
2010,05,20,02,45,0.00
2010,05,20,02,46,0.00
2010,05,20,02,47,0.00
2010,05,20,02,48,0.00
2010,05,20,02,49,0.00
2010,05,20,02,50,0.00
2010,05,20,02,51,0.00
2010,05,20,02,52,0.00
2010,05,20,02,53,0.00
2010,05,20,02,54,0.00
2010,05,20,02,55,0.00
2010,05,20,02,56,0.00
2010,05,20,02,57,0.00
2010,05,20,02,58,0.00
2010,05,20,02,59,0.00
2010,05,20,03,00,0.00
2010,05,20,03,01,0.00
2010,05,20,03,02,0.00
2010,05,20,03,03,0.00
2010,05,20,03,04,0.00
2010,05,20,03,05,0.00
2010,05,20,03,06,0.00
2010,05,20,03,07,0.00
2010,05,20,03,08,0.00
2010,05,20,03,09,0.00
2010,05,20,03,10,0.00
2010,05,20,03,11,0.00
2010,05,20,03,12,0.00
2010,05,20,03,13,0.00
2010,05,20,03,14,0.00
2010,05,20,03,15,0.00
2010,05,20,03,16,0.00
2010,05,20,03,17,0.00
2010,05,20,03,18,0.00
2010,05,20,03,19,0.00
2010,05,20,03,20,0.00
2010,05,20,03,21,0.00
2010,05,20,03,22,0.00
2010,05,20,03,23,0.00
2010,05,20,03,24,0.00
2010,05,20,03,25,0.00
2010,05,20,03,26,0.00
2010,05,20,03,27,0.00
2010,05,20,03,28,0.00
2010,05,20,03,29,0.00
2010,05,20,03,30,0.00
2010,05,20,03,31,0.00
2010,05,20,03,32,0.00
2010,05,20,03,33,0.00
2010,05,20,03,34,0.00
2010,05,20,03,35,0.00
2010,05,20,03,36,0.00
2010,05,20,03,37,0.00
2010,05,20,03,38,0.00
2010,05,20,03,39,0.00
2010,05,20,03,40,0.00
2010,05,20,03,41,0.00
2010,05,20,03,42,0.00
2010,05,20,03,43,0.00
2010,05,20,03,44,0.00
2010,05,20,03,45,0.00
2010,05,20,03,46,0.00
2010,05,20,03,47,0.00
2010,05,20,03,48,0.00
2010,05,20,03,49,0.00
2010,05,20,03,50,0.00
2010,05,20,03,51,0.00
2010,05,20,03,52,0.00
2010,05,20,03,53,0.00
2010,05,20,03,54,0.00
2010,05,20,03,55,0.00
2010,05,20,03,56,0.00
2010,05,20,03,57,0.00
2010,05,20,03,58,0.00
2010,05,20,03,59,0.00
2010,05,20,04,00,0.00
2010,05,20,04,01,0.00
2010,05,20,04,02,0.00
2010,05,20,04,03,0.00
2010,05,20,04,04,0.00
2010,05,20,04,05,0.00
2010,05,20,04,06,0.00
2010,05,20,04,07,0.00
2010,05,20,04,08,0.00
2010,05,20,04,09,0.00
2010,05,20,04,10,0.00
2010,05,20,04,11,0.00
2010,05,20,04,12,0.00
2010,05,20,04,13,0.00
2010,05,20,04,14,0.00
2010,05,20,04,15,0.00
2010,05,20,04,16,0.00
2010,05,20,04,17,0.00
2010,05,20,04,18,0.00
2010,05,20,04,19,0.00
2010,05,20,04,20,0.00
2010,05,20,04,21,0.00
2010,05,20,04,22,0.00
2010,05,20,04,23,0.00
2010,05,20,04,24,0.00
2010,05,20,04,25,0.00
2010,05,20,04,26,0.00
2010,05,20,04,27,0.00
2010,05,20,04,28,0.00
2010,05,20,04,29,0.00
2010,05,20,04,30,0.00
2010,05,20,04,31,0.00
2010,05,20,04,32,0.00
2010,05,20,04,33,0.00
2010,05,20,04,34,0.00
2010,05,20,04,35,0.00
2010,05,20,04,36,0.00
2010,05,20,04,37,0.00
2010,05,20,04,38,0.00
2010,05,20,04,39,0.00
2010,05,20,04,40,0.00
2010,05,20,04,41,0.00
2010,05,20,04,42,0.00
2010,05,20,04,43,0.00
2010,05,20,04,44,0.00
2010,05,20,04,45,0.00
2010,05,20,04,46,0.00
2010,05,20,04,47,0.00
2010,05,20,04,48,0.00
2010,05,20,04,49,0.00
2010,05,20,04,50,0.00
2010,05,20,04,51,0.00
2010,05,20,04,52,0.00
2010,05,20,04,53,0.00
2010,05,20,04,54,0.00
2010,05,20,04,55,0.00
2010,05,20,04,56,0.00
2010,05,20,04,57,0.00
2010,05,20,04,58,0.00
2010,05,20,04,59,0.00
2010,05,20,05,00,0.00
2010,05,20,05,01,0.00
2010,05,20,05,02,0.00
2010,05,20,05,03,0.00
2010,05,20,05,04,0.00
2010,05,20,05,05,0.00
2010,05,20,05,06,0.00
2010,05,20,05,07,0.00
2010,05,20,05,08,0.00
2010,05,20,05,09,0.00
2010,05,20,05,10,0.00
2010,05,20,05,11,0.00
2010,05,20,05,12,0.00
2010,05,20,05,13,0.00
2010,05,20,05,14,0.00
2010,05,20,05,15,0.00
2010,05,20,05,16,0.00
2010,05,20,05,17,0.00
2010,05,20,05,18,0.00
2010,05,20,05,19,0.00
2010,05,20,05,20,0.00
2010,05,20,05,21,0.00
2010,05,20,05,22,0.00
2010,05,20,05,23,0.00
2010,05,20,05,24,0.00
2010,05,20,05,25,0.00
2010,05,20,05,26,0.00
2010,05,20,05,27,0.00
2010,05,20,05,28,0.00
2010,05,20,05,29,0.00
2010,05,20,05,30,0.00
2010,05,20,05,31,0.00
2010,05,20,05,32,0.00
2010,05,20,05,33,0.00
2010,05,20,05,34,0.00
2010,05,20,05,35,0.00
2010,05,20,05,36,0.00
2010,05,20,05,37,0.00
2010,05,20,05,38,0.00
2010,05,20,05,39,0.00
2010,05,20,05,40,0.00
2010,05,20,05,41,0.00
2010,05,20,05,42,0.00
2010,05,20,05,43,0.00
2010,05,20,05,44,0.00
2010,05,20,05,45,0.00
2010,05,20,05,46,0.00
2010,05,20,05,47,4.00
2010,05,20,05,48,5.00
2010,05,20,05,49,5.00
2010,05,20,05,50,5.00
2010,05,20,05,51,6.10
2010,05,20,05,52,7.00
2010,05,20,05,53,7.00
2010,05,20,05,54,8.90
2010,05,20,05,55,9.00
2010,05,20,05,56,9.70
2010,05,20,05,57,11.00
2010,05,20,05,58,11.00
2010,05,20,05,59,11.80
2010,05,20,06,00,12.00
2010,05,20,06,01,12.60
2010,05,20,06,02,14.00
2010,05,20,06,03,15.20
2010,05,20,06,04,16.00
2010,05,20,06,05,16.00
2010,05,20,06,06,17.90
2010,05,20,06,07,18.00
2010,05,20,06,08,18.50
2010,05,20,06,09,19.00
2010,05,20,06,10,19.00
2010,05,20,06,11,19.00
2010,05,20,06,12,19.30
2010,05,20,06,13,20.40
2010,05,20,06,14,19.00
2010,05,20,06,15,19.00
2010,05,20,06,16,19.00
2010,05,20,06,17,19.00
2010,05,20,06,18,21.00
2010,05,20,06,19,21.00
2010,05,20,06,20,21.90
2010,05,20,06,21,23.00
2010,05,20,06,22,23.00
2010,05,20,06,23,24.80
2010,05,20,06,24,25.20
2010,05,20,06,25,26.00
2010,05,20,06,26,27.00
2010,05,20,06,27,29.30
2010,05,20,06,28,31.60
2010,05,20,06,29,33.10
2010,05,20,06,30,35.00
2010,05,20,06,31,35.70
2010,05,20,06,32,37.00
2010,05,20,06,33,38.40
2010,05,20,06,34,39.00
2010,05,20,06,35,39.00
2010,05,20,06,36,39.00
2010,05,20,06,37,39.40
2010,05,20,06,38,40.00
2010,05,20,06,39,41.40
2010,05,20,06,40,42.00
2010,05,20,06,41,42.20
2010,05,20,06,42,44.80
2010,05,20,06,43,47.80
2010,05,20,06,44,49.00
2010,05,20,06,45,50.40
2010,05,20,06,46,51.00
2010,05,20,06,47,53.00
2010,05,20,06,48,53.00
2010,05,20,06,49,53.00
2010,05,20,06,50,53.00
2010,05,20,06,51,53.00
2010,05,20,06,52,53.90
2010,05,20,06,53,54.00
2010,05,20,06,54,54.00
2010,05,20,06,55,54.00
2010,05,20,06,56,53.40
2010,05,20,06,57,53.00
2010,05,20,06,58,53.00
2010,05,20,06,59,52.60
2010,05,20,07,00,50.30
2010,05,20,07,01,48.10
2010,05,20,07,02,48.30
2010,05,20,07,03,50.50
2010,05,20,07,04,54.20
2010,05,20,07,05,60.60
2010,05,20,07,06,64.60
2010,05,20,07,07,67.00
2010,05,20,07,08,68.30
2010,05,20,07,09,71.40
2010,05,20,07,10,74.10
2010,05,20,07,11,78.00
2010,05,20,07,12,82.10
2010,05,20,07,13,86.00
2010,05,20,07,14,89.30
2010,05,20,07,15,90.80
2010,05,20,07,16,93.00
2010,05,20,07,17,93.40
2010,05,20,07,18,95.00
2010,05,20,07,19,95.00
2010,05,20,07,20,96.40
2010,05,20,07,21,97.00
2010,05,20,07,22,97.10
2010,05,20,07,23,98.00
2010,05,20,07,24,98.90
2010,05,20,07,25,100.00
2010,05,20,07,26,100.00
2010,05,20,07,27,101.80
2010,05,20,07,28,102.30
2010,05,20,07,29,104.30
2010,05,20,07,30,105.00
2010,05,20,07,31,106.20
2010,05,20,07,32,109.90
2010,05,20,07,33,115.20
2010,05,20,07,34,121.60
2010,05,20,07,35,126.50
2010,05,20,07,36,131.90
2010,05,20,07,37,135.80
2010,05,20,07,38,139.80
2010,05,20,07,39,148.60
2010,05,20,07,40,155.50
2010,05,20,07,41,157.80
2010,05,20,07,42,170.40
2010,05,20,07,43,159.40
2010,05,20,07,44,147.10
2010,05,20,07,45,147.90
2010,05,20,07,46,149.40
2010,05,20,07,47,152.40
2010,05,20,07,48,155.00
2010,05,20,07,49,156.90
2010,05,20,07,50,161.90
2010,05,20,07,51,172.80
2010,05,20,07,52,159.20
2010,05,20,07,53,151.00
2010,05,20,07,54,152.00
2010,05,20,07,55,157.60
2010,05,20,07,56,167.60
2010,05,20,07,57,176.50
2010,05,20,07,58,181.00
2010,05,20,07,59,178.20
2010,05,20,08,00,170.10
2010,05,20,08,01,164.30
2010,05,20,08,02,167.80
2010,05,20,08,03,178.20
2010,05,20,08,04,185.80
2010,05,20,08,05,190.80
2010,05,20,08,06,201.10
2010,05,20,08,07,213.40
2010,05,20,08,08,220.20
2010,05,20,08,09,223.20
2010,05,20,08,10,227.00
2010,05,20,08,11,235.30
2010,05,20,08,12,232.10
2010,05,20,08,13,215.20
2010,05,20,08,14,201.60
2010,05,20,08,15,204.10
2010,05,20,08,16,216.00
2010,05,20,08,17,216.00
2010,05,20,08,18,240.60
2010,05,20,08,19,277.50
2010,05,20,08,20,322.40
2010,05,20,08,21,391.20
2010,05,20,08,22,382.60
2010,05,20,08,23,370.30
2010,05,20,08,24,356.30
2010,05,20,08,25,376.10
2010,05,20,08,26,387.10
2010,05,20,08,27,383.60
2010,05,20,08,28,400.90
2010,05,20,08,29,416.00
2010,05,20,08,30,437.60
2010,05,20,08,31,445.80
2010,05,20,08,32,364.50
2010,05,20,08,33,414.60
2010,05,20,08,34,395.90
2010,05,20,08,35,364.00
2010,05,20,08,36,273.70
2010,05,20,08,37,206.40
2010,05,20,08,38,194.70
2010,05,20,08,39,190.40
2010,05,20,08,40,183.20
2010,05,20,08,41,174.80
2010,05,20,08,42,165.10
2010,05,20,08,43,160.40
2010,05,20,08,44,157.70
2010,05,20,08,45,155.00
2010,05,20,08,46,155.40
2010,05,20,08,47,158.30
2010,05,20,08,48,165.20
2010,05,20,08,49,174.60
2010,05,20,08,50,190.40
2010,05,20,08,51,207.80
2010,05,20,08,52,225.70
2010,05,20,08,53,265.60
2010,05,20,08,54,285.00
2010,05,20,08,55,375.90
2010,05,20,08,56,390.90
2010,05,20,08,57,396.00
2010,05,20,08,58,396.00
2010,05,20,08,59,295.60
2010,05,20,09,00,250.50
2010,05,20,09,01,221.70
2010,05,20,09,02,228.20
2010,05,20,09,03,249.70
2010,05,20,09,04,234.00
2010,05,20,09,05,370.40
2010,05,20,09,06,487.10
2010,05,20,09,07,513.20
2010,05,20,09,08,515.00
2010,05,20,09,09,503.20
2010,05,20,09,10,487.70
2010,05,20,09,11,496.50
2010,05,20,09,12,522.70
2010,05,20,09,13,558.60
2010,05,20,09,14,567.60
2010,05,20,09,15,569.80
2010,05,20,09,16,599.00
2010,05,20,09,17,595.20
2010,05,20,09,18,551.80
2010,05,20,09,19,524.00
2010,05,20,09,20,472.50
2010,05,20,09,21,314.20
2010,05,20,09,22,316.40
2010,05,20,09,23,284.60
2010,05,20,09,24,258.40
2010,05,20,09,25,290.70
2010,05,20,09,26,273.10
2010,05,20,09,27,295.60
2010,05,20,09,28,325.00
2010,05,20,09,29,463.50
2010,05,20,09,30,492.80
2010,05,20,09,31,560.80
2010,05,20,09,32,594.00
2010,05,20,09,33,594.00
2010,05,20,09,34,591.10
2010,05,20,09,35,587.50
2010,05,20,09,36,585.20
2010,05,20,09,37,589.70
2010,05,20,09,38,574.10
2010,05,20,09,39,553.80
2010,05,20,09,40,540.20
2010,05,20,09,41,523.20
2010,05,20,09,42,500.10
2010,05,20,09,43,431.40
2010,05,20,09,44,363.50
2010,05,20,09,45,315.50
2010,05,20,09,46,286.90
2010,05,20,09,47,275.20
2010,05,20,09,48,246.30
2010,05,20,09,49,237.40
2010,05,20,09,50,266.20
2010,05,20,09,51,349.00
2010,05,20,09,52,421.70
2010,05,20,09,53,471.80
2010,05,20,09,54,487.90
2010,05,20,09,55,479.80
2010,05,20,09,56,496.60
2010,05,20,09,57,498.40
2010,05,20,09,58,467.30
2010,05,20,09,59,506.00
2010,05,20,10,00,510.00
2010,05,20,10,01,446.80
2010,05,20,10,02,290.50
2010,05,20,10,03,348.00
2010,05,20,10,04,456.50
2010,05,20,10,05,583.00
2010,05,20,10,06,567.80
2010,05,20,10,07,397.00
2010,05,20,10,08,451.40
2010,05,20,10,09,569.50
2010,05,20,10,10,596.00
2010,05,20,10,11,369.90
2010,05,20,10,12,330.00
2010,05,20,10,13,398.20
2010,05,20,10,14,584.60
2010,05,20,10,15,583.20
2010,05,20,10,16,575.60
2010,05,20,10,17,564.70
2010,05,20,10,18,593.80
2010,05,20,10,19,614.30
2010,05,20,10,20,625.50
2010,05,20,10,21,654.00
2010,05,20,10,22,669.20
2010,05,20,10,23,670.20
2010,05,20,10,24,676.40
2010,05,20,10,25,683.80
2010,05,20,10,26,687.90
2010,05,20,10,27,687.10
2010,05,20,10,28,686.00
2010,05,20,10,29,681.80
2010,05,20,10,30,709.40
2010,05,20,10,31,714.70
2010,05,20,10,32,719.30
2010,05,20,10,33,727.20
2010,05,20,10,34,735.80
2010,05,20,10,35,744.90
2010,05,20,10,36,757.80
2010,05,20,10,37,765.60
2010,05,20,10,38,771.10
2010,05,20,10,39,772.70
2010,05,20,10,40,776.40
2010,05,20,10,41,784.50
2010,05,20,10,42,792.20
2010,05,20,10,43,806.80
2010,05,20,10,44,817.70
2010,05,20,10,45,821.00
2010,05,20,10,46,815.40
2010,05,20,10,47,811.30
2010,05,20,10,48,806.50
2010,05,20,10,49,812.20
2010,05,20,10,50,823.00
2010,05,20,10,51,823.00
2010,05,20,10,52,815.30
2010,05,20,10,53,800.40
2010,05,20,10,54,819.10
2010,05,20,10,55,826.80
2010,05,20,10,56,820.60
2010,05,20,10,57,816.80
2010,05,20,10,58,814.20
2010,05,20,10,59,822.40
2010,05,20,11,00,829.40
2010,05,20,11,01,824.70
2010,05,20,11,02,824.00
2010,05,20,11,03,826.00
2010,05,20,11,04,825.90
2010,05,20,11,05,822.90
2010,05,20,11,06,818.30
2010,05,20,11,07,805.00
2010,05,20,11,08,805.60
2010,05,20,11,09,815.60
2010,05,20,11,10,823.50
2010,05,20,11,11,831.60
2010,05,20,11,12,843.50
2010,05,20,11,13,853.00
2010,05,20,11,14,853.00
2010,05,20,11,15,770.90
2010,05,20,11,16,753.80
2010,05,20,11,17,844.10
2010,05,20,11,18,833.20
2010,05,20,11,19,824.90
2010,05,20,11,20,823.30
2010,05,20,11,21,821.30
2010,05,20,11,22,826.00
2010,05,20,11,23,827.50
2010,05,20,11,24,826.80
2010,05,20,11,25,828.00
2010,05,20,11,26,829.40
2010,05,20,11,27,830.80
2010,05,20,11,28,831.00
2010,05,20,11,29,831.50
2010,05,20,11,30,835.00
2010,05,20,11,31,838.00
2010,05,20,11,32,840.90
2010,05,20,12,00,341.00
2010,05,20,12,01,759.00
2010,05,20,12,02,981.50
2010,05,20,12,03,981.00
2010,05,20,12,04,971.80
2010,05,20,12,05,941.90
2010,05,20,12,06,922.90
2010,05,20,12,07,912.00
2010,05,20,12,08,912.00
2010,05,20,12,09,896.80
2010,05,20,12,10,895.70
2010,05,20,12,11,895.40
2010,05,20,12,12,897.10
2010,05,20,12,13,896.60
2010,05,20,12,14,899.60
2010,05,20,12,15,904.80
2010,05,20,12,16,904.00
2010,05,20,12,17,904.40
2010,05,20,12,18,906.20
2010,05,20,12,19,909.90
2010,05,20,12,20,915.50
2010,05,20,12,21,926.30
2010,05,20,12,22,930.50
2010,05,20,12,23,933.10
2010,05,20,12,24,953.40
2010,05,20,12,25,956.80
2010,05,20,12,26,981.10
2010,05,20,12,27,907.10
2010,05,20,12,28,473.90
2010,05,20,12,29,474.00
2010,05,20,12,30,524.00
2010,05,20,12,31,401.60
2010,05,20,12,32,400.20
2010,05,20,12,33,955.30
2010,05,20,12,34,923.40
2010,05,20,12,35,908.30
2010,05,20,12,36,905.00
2010,05,20,12,37,905.00
2010,05,20,12,38,904.20
2010,05,20,12,39,905.80
2010,05,20,12,40,909.70
2010,05,20,12,41,911.50
2010,05,20,12,42,910.00
2010,05,20,12,43,913.20
2010,05,20,12,44,912.30
2010,05,20,12,45,913.50
2010,05,20,12,46,912.80
2010,05,20,12,47,915.10
2010,05,20,12,48,917.40
2010,05,20,12,49,924.70
2010,05,20,12,50,936.50
2010,05,20,12,51,949.00
2010,05,20,12,52,821.80
2010,05,20,12,53,603.80
2010,05,20,12,54,584.00
2010,05,20,12,55,584.00
2010,05,20,12,56,1124.50
2010,05,20,12,57,1117.00
2010,05,20,12,58,1139.50
2010,05,20,12,59,1150.00
2010,05,20,13,00,899.50
2010,05,20,13,01,754.80
2010,05,20,13,02,745.00
2010,05,20,13,03,745.00
2010,05,20,13,04,745.00
2010,05,20,13,05,745.00
2010,05,20,13,06,745.00
2010,05,20,13,07,1015.80
2010,05,20,13,08,1004.30
2010,05,20,13,09,976.30
2010,05,20,13,10,966.80
2010,05,20,13,11,958.60
2010,05,20,13,12,954.40
2010,05,20,13,13,953.10
2010,05,20,13,14,951.70
2010,05,20,13,15,947.00
2010,05,20,13,16,948.00
2010,05,20,13,17,951.70
2010,05,20,13,18,960.10
2010,05,20,13,19,987.60
2010,05,20,13,20,1015.70
2010,05,20,13,21,956.00
2010,05,20,13,22,956.00
2010,05,20,13,23,956.00
2010,05,20,13,24,465.90
2010,05,20,13,25,389.80
2010,05,20,13,26,524.00
2010,05,20,13,27,424.20
2010,05,20,13,28,287.00
2010,05,20,13,29,287.00
2010,05,20,13,30,287.00
2010,05,20,13,31,358.20
2010,05,20,13,32,967.80
2010,05,20,13,33,965.10
2010,05,20,13,34,941.90
2010,05,20,13,35,942.70
2010,05,20,13,36,945.70
2010,05,20,13,37,962.00
2010,05,20,13,38,945.50
2010,05,20,13,39,946.10
2010,05,20,13,40,957.10
2010,05,20,13,41,986.60
2010,05,20,13,42,962.00
2010,05,20,13,43,336.50
2010,05,20,13,44,349.40
2010,05,20,13,45,348.00
2010,05,20,13,46,348.00
2010,05,20,13,47,348.00
2010,05,20,13,48,910.20
2010,05,20,13,49,975.40
2010,05,20,13,50,930.20
2010,05,20,13,51,919.00
2010,05,20,13,52,919.00
2010,05,20,13,53,919.00
2010,05,20,13,54,877.40
2010,05,20,13,55,503.00
2010,05,20,13,56,503.00
2010,05,20,13,57,503.00
2010,05,20,13,58,748.40
2010,05,20,13,59,902.90
2010,05,20,14,00,900.20
2010,05,20,14,01,914.60
2010,05,20,14,02,898.70
2010,05,20,14,03,901.10
2010,05,20,14,04,904.10
2010,05,20,14,05,908.40
2010,05,20,14,06,917.60
2010,05,20,14,07,920.80
2010,05,20,14,08,923.90
2010,05,20,14,09,921.00
2010,05,20,14,10,921.00
2010,05,20,14,11,916.80
2010,05,20,14,12,910.40
2010,05,20,14,13,902.50
2010,05,20,14,14,893.30
2010,05,20,14,15,893.90
2010,05,20,14,16,918.40
2010,05,20,14,17,919.90
2010,05,20,14,18,907.30
2010,05,20,14,19,897.10
2010,05,20,14,20,894.10
2010,05,20,14,21,893.00
2010,05,20,14,22,890.10
2010,05,20,14,23,886.30
2010,05,20,14,24,883.70
2010,05,20,14,25,883.30
2010,05,20,14,26,887.40
2010,05,20,14,27,889.00
2010,05,20,14,28,885.10
2010,05,20,14,29,881.30
2010,05,20,14,30,879.00
2010,05,20,14,31,881.60
2010,05,20,14,32,894.50
2010,05,20,14,33,904.00
2010,05,20,14,34,904.00
2010,05,20,14,35,904.00
2010,05,20,14,36,904.00
2010,05,20,14,37,658.30
2010,05,20,14,38,237.00
2010,05,20,14,39,724.60
2010,05,20,14,40,985.00
2010,05,20,14,41,967.30
2010,05,20,14,42,904.00
2010,05,20,14,43,904.00
2010,05,20,14,44,904.00
2010,05,20,14,45,904.00
2010,05,20,14,46,898.90
2010,05,20,14,47,877.70
2010,05,20,14,48,866.00
2010,05,20,14,49,866.30
2010,05,20,14,50,872.00
2010,05,20,14,51,872.00
2010,05,20,14,52,876.20
2010,05,20,14,53,866.10
2010,05,20,14,54,859.20
2010,05,20,14,55,855.80
2010,05,20,14,56,852.80
2010,05,20,14,57,849.00
2010,05,20,14,58,846.50
2010,05,20,14,59,843.10
2010,05,20,15,00,837.20
2010,05,20,15,01,836.30
2010,05,20,15,02,836.10
2010,05,20,15,03,837.20
2010,05,20,15,04,851.40
2010,05,20,15,05,860.50
2010,05,20,15,06,855.80
2010,05,20,15,07,849.10
2010,05,20,15,08,846.40
2010,05,20,15,09,846.00
2010,05,20,15,10,843.60
2010,05,20,15,11,863.50
2010,05,20,15,12,858.60
2010,05,20,15,13,860.00
2010,05,20,15,14,860.00
2010,05,20,15,15,881.00
2010,05,20,15,16,899.40
2010,05,20,15,17,900.00
2010,05,20,15,18,900.00
2010,05,20,15,19,560.50
2010,05,20,15,20,213.40
2010,05,20,15,21,209.00
2010,05,20,15,22,209.00
2010,05,20,15,23,225.20
2010,05,20,15,24,269.60
2010,05,20,15,25,283.10
2010,05,20,15,26,302.00
2010,05,20,15,27,302.00
2010,05,20,15,28,302.00
2010,05,20,15,29,302.00
2010,05,20,15,30,556.70
2010,05,20,15,31,907.00
2010,05,20,15,32,443.80
2010,05,20,15,33,218.20
2010,05,20,15,34,213.00
2010,05,20,15,35,213.00
2010,05,20,15,36,203.30
2010,05,20,15,37,207.90
2010,05,20,15,38,221.00
2010,05,20,15,39,221.00
2010,05,20,15,40,316.20
2010,05,20,15,41,854.20
2010,05,20,15,42,842.30
2010,05,20,15,43,823.90
2010,05,20,15,44,809.60
2010,05,20,15,45,799.30
2010,05,20,15,46,796.30
2010,05,20,15,47,781.90
2010,05,20,15,48,770.20
2010,05,20,15,49,790.00
2010,05,20,15,50,813.60
2010,05,20,15,51,821.00
2010,05,20,15,52,821.00
2010,05,20,15,53,665.00
2010,05,20,15,54,327.00
2010,05,20,15,55,382.60
2010,05,20,15,56,415.00
2010,05,20,15,57,795.80
2010,05,20,15,58,817.00
2010,05,20,15,59,778.30
2010,05,20,16,00,712.00
2010,05,20,16,01,712.00
2010,05,20,16,02,712.00
2010,05,20,16,03,808.90
2010,05,20,16,04,814.00
2010,05,20,16,05,672.20
2010,05,20,16,06,429.00
2010,05,20,16,07,262.70
2010,05,20,16,08,185.20
2010,05,20,16,09,191.50
2010,05,20,16,10,207.20
2010,05,20,16,11,218.90
2010,05,20,16,12,229.80
2010,05,20,16,13,255.60
2010,05,20,16,14,269.90
2010,05,20,16,15,254.10
2010,05,20,16,16,246.00
2010,05,20,16,17,248.10
2010,05,20,16,18,258.70
2010,05,20,16,19,291.50
2010,05,20,16,20,354.40
2010,05,20,16,21,282.50
2010,05,20,16,22,263.30
2010,05,20,16,23,243.90
2010,05,20,16,24,231.90
2010,05,20,16,25,234.20
2010,05,20,16,26,249.40
2010,05,20,16,27,305.40
2010,05,20,16,28,408.80
2010,05,20,16,29,443.40
2010,05,20,16,30,361.00
2010,05,20,16,31,371.50
2010,05,20,16,32,357.10
2010,05,20,16,33,350.40
2010,05,20,16,34,420.00
2010,05,20,16,35,414.60
2010,05,20,16,36,434.00
2010,05,20,16,37,441.00
2010,05,20,16,38,601.20
2010,05,20,16,39,660.40
2010,05,20,16,40,817.20
2010,05,20,16,41,791.50
2010,05,20,16,42,767.60
2010,05,20,16,43,747.60
2010,05,20,16,44,724.30
2010,05,20,16,45,707.00
2010,05,20,16,46,693.90
2010,05,20,16,47,683.20
2010,05,20,16,48,673.20
2010,05,20,16,49,660.70
2010,05,20,16,50,649.70
2010,05,20,16,51,640.40
2010,05,20,16,52,618.00
2010,05,20,16,53,620.80
2010,05,20,16,54,623.20
2010,05,20,16,55,613.80
2010,05,20,16,56,561.60
2010,05,20,16,57,490.00
2010,05,20,16,58,546.40
2010,05,20,16,59,606.40
2010,05,20,17,00,603.40
2010,05,20,17,01,612.50
2010,05,20,17,02,612.00
2010,05,20,17,03,611.40
2010,05,20,17,04,608.20
2010,05,20,17,05,601.40
2010,05,20,17,06,587.70
2010,05,20,17,07,577.70
2010,05,20,17,08,544.90
2010,05,20,17,09,557.70
2010,05,20,17,10,569.20
2010,05,20,17,11,572.50
2010,05,20,17,12,559.90
2010,05,20,17,13,525.10
2010,05,20,17,14,543.60
2010,05,20,17,15,537.30
2010,05,20,17,16,530.30
2010,05,20,17,17,504.80
2010,05,20,17,18,514.50
2010,05,20,17,19,452.70
2010,05,20,17,20,464.80
2010,05,20,17,21,468.00
2010,05,20,17,22,435.40
2010,05,20,17,23,445.70
2010,05,20,17,24,455.60
2010,05,20,17,25,456.60
2010,05,20,17,26,465.10
2010,05,20,17,27,508.90
2010,05,20,17,28,520.60
2010,05,20,17,29,518.80
2010,05,20,17,30,519.50
2010,05,20,17,31,507.10
2010,05,20,17,32,506.30
2010,05,20,17,33,492.40
2010,05,20,17,34,460.20
2010,05,20,17,35,427.80
2010,05,20,17,36,424.00